GFSMA_con_3kmhel_237.txt.gz
Helicity
99 88 86 76 65 78 55 70 47 52 60 52 55 50 52 48 63 54 134 119 102 93 98 107 110 114 110 110 104 91 77 65 63 64 66 68 69 65 67 77 83 86 91
105 82 94 83 80 74 60 72 64 77 62 60 60 58 58 59 58 62 88 122 102 106 102 108 107 98 98 99 93 85 78 78 81 85 96 102 118 147 161 158 144 123 107
99 71 80 86 82 78 87 86 93 82 77 67 58 65 65 65 78 110 78 145 115 89 115 127 126 117 109 105 100 99 96 104 114 120 125 148 157 158 157 163 171 167 171
60 99 87 86 86 99 109 107 107 103 84 76 79 92 86 104 93 90 83 103 107 113 111 137 128 121 124 124 127 126 119 115 115 122 134 144 153 160 160 158 148 147 150
79 104 69 101 115 109 121 108 110 103 112 101 99 109 94 85 78 71 67 84 74 90 128 137 109 118 120 120 123 117 127 130 122 117 131 142 144 148 168 162 160 159 156
118 125 107 117 162 111 117 108 114 107 93 107 75 73 94 74 69 75 81 79 86 86 82 118 103 74 78 88 92 108 121 122 132 132 134 149 159 151 152 150 135 137 137
108 159 128 150 197 145 123 143 120 96 139 108 106 70 75 63 57 61 65 71 85 89 101 108 100 132 97 52 111 110 107 114 122 123 136 141 135 127 113 97 81 78 84
152 166 196 187 204 172 145 157 153 129 143 96 121 72 89 72 72 65 88 105 121 122 110 106 147 124 101 109 173 142 176 166 140 147 161 152 133 106 92 85 75 75 77
166 175 220 219 270 235 187 187 191 150 192 145 104 131 136 122 167 154 114 138 151 108 132 144 97 95 104 118 96 177 224 212 210 195 179 149 118 99 89 83 74 64 59
203 216 235 249 282 333 215 233 212 193 213 162 176 129 186 254 225 233 172 152 145 123 140 121 159 136 114 90 172 231 271 223 195 165 165 148 118 94 77 72 75 70 70
214 232 265 276 265 344 282 235 238 232 207 184 240 155 184 211 218 234 216 157 144 112 121 173 142 140 125 145 126 244 222 182 160 130 129 109 96 79 81 73 77 71 73
303 283 257 252 267 295 314 263 269 283 207 191 264 223 239 307 247 229 197 203 174 164 145 152 127 120 139 126 129 175 162 123 123 120 127 98 73 65 74 75 66 66 59
329 285 292 268 287 276 310 307 276 275 229 270 244 261 229 230 309 268 241 241 199 213 186 134 129 134 117 121 135 179 119 95 203 158 111 93 69 47 55 63 55 51 46
257 243 255 225 248 239 279 271 277 267 242 213 212 348 366 366 333 282 254 225 223 193 144 125 138 99 117 109 108 101 119 196 166 110 92 63 41 44 55 54 44 38 43
249 241 253 207 213 211 221 263 277 253 262 296 390 449 358 345 326 305 299 280 240 182 136 216 182 165 96 103 142 133 113 148 98 81 65 40 45 40 45 44 39 35 26
185 233 245 160 165 192 250 274 315 402 434 432 405 398 469 423 364 335 288 264 190 186 184 196 193 192 181 131 144 132 118 102 98 75 57 48 43 33 32 27 16 17 14
207 279 211 162 147 255 317 385 465 435 477 410 418 457 450 435 420 355 265 201 167 169 191 147 186 151 145 117 117 123 118 108 89 92 81 47 37 36 34 28 22 18 15
188 216 171 174 181 265 387 433 472 450 440 476 481 443 425 402 343 279 262 194 158 178 158 135 149 157 139 137 124 121 124 111 83 80 41 35 40 50 40 39 54 5 21
170 187 218 211 262 365 443 480 550 487 419 411 446 402 356 372 289 204 177 203 185 205 162 151 145 141 124 141 130 140 122 97 72 57 38 34 43 52 38 74 43 30 19
241 214 266 235 296 408 508 606 580 495 487 452 474 435 418 351 247 240 179 176 199 182 156 165 140 114 120 140 141 142 120 104 96 70 59 45 40 64 64 82 58 55 33
198 151 275 331 408 519 581 579 579 545 497 502 451 401 338 263 402 242 209 202 201 181 194 141 120 118 110 130 142 126 105 88 88 42 85 63 50 62 59 55 64 38 42
232 249 238 366 423 467 480 523 478 507 465 433 394 418 425 410 402 405 364 404 299 182 156 127 128 111 96 132 128 112 97 92 59 45 67 126 53 68 56 43 56 56 57
292 333 361 413 460 514 431 429 436 428 395 350 378 384 368 332 304 303 318 298 273 225 228 215 120 93 136 129 107 93 97 90 75 59 35 89 63 81 73 55 89 81 79
264 342 402 433 519 496 470 394 435 445 420 353 349 337 308 262 245 264 236 216 186 167 158 134 116 139 145 127 97 80 70 76 77 53 61 64 74 85 83 75 85 99 87
270 319 351 400 408 431 417 431 483 468 454 396 370 336 291 258 283 273 220 233 214 225 161 130 143 113 103 98 85 77 90 72 66 68 67 50 61 58 86 92 65 85 78
313 349 422 401 364 371 337 406 463 497 499 472 388 381 304 270 258 246 218 199 189 146 124 163 155 121 91 84 77 75 71 69 54 40 49 60 65 43 39 73 59 30 41

GFSMA_con_3kmhel_240.txt.gz
Helicity
113 74 94 88 88 100 57 88 42 50 9 10 21 69 66 50 23 107 127 128 97 92 99 99 108 109 112 110 104 95 83 75 71 70 74 77 83 97 106 111 114 112 107
102 89 50 144 93 97 79 85 63 99 44 84 62 55 46 53 56 61 147 137 108 94 105 111 111 112 104 102 100 95 96 103 101 101 104 110 125 126 130 133 141 145 149
78 122 71 117 115 72 120 73 102 84 113 80 76 89 63 67 65 109 153 128 95 92 87 112 121 115 108 110 118 115 122 122 118 122 122 129 127 133 138 142 150 161 162
86 135 105 68 92 131 149 166 132 138 112 98 74 71 121 55 86 109 124 119 125 111 107 122 114 123 125 139 140 141 140 132 134 127 127 133 136 133 143 169 182 185 192
119 151 122 101 106 127 180 178 162 156 134 79 138 147 149 143 128 98 99 99 119 149 160 143 124 115 121 133 134 143 143 132 134 133 117 125 141 142 129 131 135 125 127
161 101 148 107 168 143 178 200 167 163 122 115 99 92 105 119 115 106 86 106 108 112 173 147 134 110 113 119 140 160 141 134 123 107 110 103 116 121 125 119 93 80 86
209 163 143 149 194 250 222 201 180 153 151 129 145 114 114 110 102 88 77 85 119 130 149 196 139 180 141 132 160 129 125 124 113 93 102 113 125 126 115 106 95 79 73
248 210 177 174 188 283 283 245 241 202 161 241 210 162 123 107 105 85 83 113 201 252 274 205 161 229 198 168 137 170 190 175 147 116 105 99 121 128 116 106 101 83 70
287 249 212 209 235 294 323 298 291 271 217 230 250 188 155 163 168 163 219 184 258 240 213 172 186 193 206 221 217 220 199 161 132 115 99 116 133 131 124 107 96 92 81
290 280 227 228 227 304 316 339 292 308 271 308 278 170 141 207 249 277 240 232 239 207 202 261 294 304 232 213 261 243 193 159 124 109 125 128 131 132 104 86 83 90 82
280 279 267 251 259 316 336 373 337 339 314 353 304 307 182 235 217 349 363 285 265 223 178 204 297 255 217 242 224 211 158 104 100 118 106 116 109 102 79 77 71 63 69
308 282 287 302 319 305 377 381 364 331 346 350 304 307 273 327 288 333 379 404 309 206 196 309 274 187 236 242 225 190 144 82 115 123 108 95 119 81 46 45 48 48 49
342 344 350 365 369 354 343 386 367 337 341 374 339 332 282 302 305 291 338 353 376 338 330 273 235 240 218 203 169 151 113 148 104 85 90 104 99 58 47 46 33 26 26
360 398 389 363 363 333 305 367 341 363 333 353 272 328 362 381 397 323 370 385 361 314 378 315 248 225 208 189 166 134 109 112 81 80 116 111 93 53 38 32 27 24 29
342 422 439 392 356 330 311 329 344 306 328 354 298 317 484 565 466 361 397 370 374 386 307 270 354 273 188 201 159 141 87 100 98 104 100 103 87 52 35 26 32 35 33
292 296 329 347 303 331 284 293 336 300 326 340 359 490 592 539 485 444 416 425 428 401 358 369 367 315 286 228 171 150 113 120 126 127 123 99 73 38 25 17 20 35 46
205 284 321 322 303 265 242 284 308 287 308 413 491 560 591 549 514 471 409 432 427 380 355 396 350 290 258 198 191 163 143 148 148 143 107 81 64 51 43 40 31 44 52
206 186 287 307 320 270 243 267 384 468 512 538 595 568 577 606 503 445 454 438 434 348 317 263 244 303 274 242 202 187 170 153 121 95 81 68 57 53 53 32 34 50 46
187 218 257 274 262 228 275 316 431 494 542 649 589 576 606 565 499 467 417 432 366 313 279 270 248 255 249 226 213 167 153 148 133 104 93 93 64 59 49 53 80 55 41
179 209 205 236 243 239 289 325 483 590 599 589 569 536 562 524 511 460 390 381 343 308 271 283 261 259 244 213 172 151 148 133 135 111 105 99 62 63 87 60 80 68 52
193 219 251 263 286 289 362 414 509 611 652 652 555 556 496 467 460 409 427 393 286 359 305 272 253 258 208 184 167 150 144 151 120 109 94 128 93 81 66 59 72 79 57
144 168 216 280 314 344 331 440 539 634 696 641 546 555 599 621 609 559 506 427 290 306 260 269 245 225 183 168 163 169 162 140 153 75 82 136 95 85 66 60 79 70 65
132 154 186 249 271 348 353 458 597 620 629 527 526 615 588 507 514 525 502 475 435 386 344 250 243 215 194 179 166 156 138 130 131 103 69 71 58 78 73 65 90 71 61
98 115 146 246 326 345 413 550 656 678 591 516 567 510 474 394 391 416 399 382 326 260 228 255 267 270 255 213 196 162 126 97 90 97 83 57 59 69 78 58 74 71 69
117 112 129 181 255 323 390 493 628 569 547 599 525 450 397 397 325 314 317 350 378 309 287 280 274 251 211 202 175 137 129 117 101 100 98 51 48 51 59 62 50 54 78
96 124 158 177 218 296 355 427 533 537 559 633 558 428 367 331 287 256 343 371 303 251 228 201 200 185 182 157 117 108 103 113 98 78 64 69 51 32 39 29 52 1 37

GFSMA_con_3kmhel_243.txt.gz
Helicity
58 79 80 81 65 60 43 41 33 20 1 -8 -8 12 12 7 54 72 98 87 97 87 86 96 103 103 104 101 100 94 87 86 87 91 92 88 96 94 93 96 103 112 122
80 87 91 81 76 85 63 66 49 36 12 16 27 49 48 65 45 116 113 96 112 89 79 104 113 109 106 100 99 104 117 123 123 109 105 110 103 103 108 111 111 117 128
92 90 112 101 86 81 78 74 59 62 50 32 40 47 52 47 50 75 146 117 97 87 85 90 98 101 98 101 115 135 145 143 133 132 119 109 113 107 104 113 128 131 127
110 99 101 124 100 104 89 87 65 74 72 71 71 54 57 56 50 98 129 121 105 92 95 95 95 82 98 108 127 145 147 144 146 135 136 123 102 106 102 110 121 127 116
103 148 125 99 138 131 145 116 104 125 132 118 82 64 91 94 76 113 145 126 103 131 146 125 120 102 100 121 147 155 155 149 148 133 129 117 102 95 95 109 119 125 126
92 149 146 116 109 141 183 220 199 178 176 128 96 110 128 128 135 138 167 147 144 159 168 185 170 127 119 146 172 163 162 164 155 138 116 92 78 70 73 81 97 105 106
145 142 159 148 143 146 184 226 250 214 185 167 130 90 110 99 103 118 112 108 108 189 229 199 185 176 161 175 177 170 183 176 154 124 91 75 61 66 80 101 117 123 116
230 179 173 163 149 183 204 241 281 275 225 207 191 184 164 141 115 120 126 99 98 209 279 249 216 187 200 214 213 207 207 172 165 134 100 66 56 69 100 121 129 121 104
271 247 198 205 178 196 221 275 305 322 266 242 279 305 235 208 170 138 133 124 155 240 340 322 285 258 259 224 242 243 195 166 145 113 83 65 74 90 105 113 129 115 100
285 306 290 253 250 232 221 284 338 339 347 286 308 300 309 240 243 216 209 253 277 331 305 293 292 318 348 295 245 202 151 123 146 115 92 80 71 83 102 117 131 116 84
288 322 332 323 287 298 265 311 355 379 346 310 352 378 356 330 317 317 293 318 313 273 308 372 365 349 347 320 266 216 158 166 137 121 105 75 74 89 106 112 103 86 63
297 339 355 370 351 333 307 362 402 398 384 352 320 359 371 355 415 429 393 361 355 286 285 347 421 431 376 302 249 194 172 150 138 123 83 73 84 100 110 100 94 77 45
330 322 362 367 364 344 330 353 385 416 406 403 396 362 343 314 386 443 463 409 390 330 359 352 362 393 356 349 259 210 183 135 114 90 63 64 85 102 99 86 95 73 56
354 322 330 340 344 344 339 354 391 406 400 399 394 366 358 303 379 416 387 487 491 463 465 477 416 396 383 318 257 220 136 107 75 61 55 87 89 97 97 99 88 68 54
317 372 361 367 390 394 402 381 402 362 390 399 409 419 380 305 360 379 365 369 389 357 421 498 442 396 448 379 255 177 133 71 92 145 131 109 105 110 104 87 74 60 48
241 311 368 380 400 437 429 450 388 366 372 398 400 419 463 412 362 410 396 387 376 378 332 444 497 468 492 376 261 199 175 190 241 156 124 121 117 120 108 91 60 50 54
222 247 305 344 345 377 453 462 373 334 331 353 384 462 533 530 500 516 491 437 328 340 384 457 510 535 452 383 281 245 223 218 171 167 189 179 162 155 115 78 57 70 52
184 184 220 272 302 327 388 386 325 320 315 338 439 529 545 573 570 566 509 362 376 333 457 559 496 563 422 331 255 229 220 197 175 203 227 212 187 157 128 94 110 68 55
137 154 198 237 266 280 309 327 304 304 326 367 474 520 597 604 608 566 486 407 454 510 473 479 532 465 390 285 258 230 230 190 177 201 192 209 183 158 145 118 105 88 75
211 148 185 206 228 255 295 309 315 304 312 402 473 517 620 614 577 545 534 482 513 586 497 476 481 409 324 269 231 219 207 171 192 191 222 195 167 155 166 113 92 86 78
235 237 157 189 214 207 241 279 286 314 381 429 562 622 619 661 613 503 526 511 540 533 476 424 425 339 321 271 209 210 179 172 174 191 153 174 153 151 128 108 82 95 81
118 169 220 189 180 216 217 236 280 340 379 430 543 609 635 574 502 465 496 419 412 492 447 434 361 320 269 240 247 202 165 175 194 176 143 171 124 134 116 93 75 91 79
76 116 135 156 146 162 167 230 336 342 385 401 482 530 596 600 573 538 606 595 511 471 389 383 300 268 253 214 222 186 171 175 176 158 117 102 96 106 100 69 72 77 86
30 55 84 104 103 120 128 212 320 370 429 412 492 516 601 628 587 608 625 619 551 537 462 335 302 267 261 212 189 172 172 172 158 146 111 139 90 100 65 47 58 52 88
24 37 58 69 84 89 80 200 418 443 436 477 541 573 580 659 540 585 608 640 599 497 486 390 342 365 284 222 188 184 174 195 171 150 120 109 76 85 47 55 51 48 76
24 40 64 63 79 98 96 158 365 438 523 593 636 527 545 523 561 555 565 592 515 459 345 340 347 297 214 187 185 186 175 156 139 142 87 98 71 64 71 33 46 12 22

GFSMA_con_3kmhel_246.txt.gz
Helicity
50 46 39 49 30 42 32 26 14 5 -5 -6 -7 -2 7 18 49 65 73 74 66 61 56 58 70 85 85 89 85 91 95 97 98 94 100 100 98 100 97 86 79 75 85
77 60 52 52 46 43 36 39 31 22 3 7 -3 4 -0 13 58 78 66 68 79 69 62 61 77 95 100 102 102 103 107 115 123 124 118 113 102 91 83 77 81 88 107
91 90 69 60 46 49 58 44 25 19 9 17 9 13 15 22 58 87 97 104 80 57 88 77 88 92 94 103 113 122 133 146 153 140 133 128 107 97 81 76 81 90 106
85 108 88 71 66 76 76 67 57 37 27 26 13 16 39 41 39 92 95 122 119 86 78 97 84 97 100 101 108 113 132 144 153 149 130 120 108 86 71 66 73 82 99
108 108 86 74 89 92 90 86 67 80 58 35 26 16 37 42 44 98 89 113 101 130 139 121 122 118 126 136 124 126 142 144 145 137 117 119 101 87 72 59 49 55 66
125 127 114 103 113 105 90 94 89 90 73 76 71 51 49 70 85 133 145 158 166 188 182 169 132 144 142 149 144 157 154 156 154 138 123 109 89 67 52 44 51 65 89
79 120 97 103 131 146 135 119 118 120 105 126 155 109 67 68 93 152 176 176 187 196 198 206 188 176 184 164 195 194 182 173 148 133 108 87 75 57 56 58 61 75 106
95 99 103 83 94 111 145 156 173 174 155 208 196 174 134 110 133 176 190 199 177 196 216 223 211 221 241 218 222 227 212 200 166 129 108 101 78 69 67 61 66 92 112
110 129 104 124 134 147 138 166 194 210 209 234 283 265 237 215 192 242 206 199 200 204 214 249 244 276 278 264 267 289 260 198 177 155 124 98 79 72 66 74 90 112 126
163 140 166 161 157 192 197 199 229 239 275 266 276 249 293 231 200 178 195 181 182 204 222 289 341 344 348 329 309 287 225 188 158 144 121 99 92 83 85 94 112 133 138
228 200 180 202 197 194 183 219 264 284 293 295 321 365 312 351 302 252 163 214 261 243 254 353 407 436 421 397 334 261 208 164 154 155 124 106 104 104 103 107 119 134 144
292 251 230 242 256 250 233 275 317 343 337 337 342 346 360 400 355 406 310 248 280 309 314 313 386 452 476 411 327 287 231 183 188 158 114 110 110 110 117 107 113 120 127
291 287 316 310 323 313 303 303 316 314 333 365 378 406 368 364 404 392 398 343 287 344 374 350 360 458 471 452 372 324 232 228 198 134 116 115 126 126 114 105 108 113 117
278 229 258 293 306 329 340 341 364 340 324 356 348 380 364 340 372 466 424 438 390 361 403 415 442 441 473 465 403 309 298 240 171 135 121 120 122 124 110 113 109 105 118
227 244 273 288 314 325 355 366 398 347 335 351 356 363 384 338 383 439 440 474 401 375 385 423 376 382 461 448 365 324 296 202 161 134 148 159 150 122 124 112 108 128 128
282 328 280 274 266 299 336 373 366 367 364 360 360 339 371 347 394 462 443 432 448 368 381 391 329 331 396 462 415 373 295 257 239 201 200 177 147 145 138 143 149 161 156
209 274 245 244 243 273 314 343 341 367 393 357 360 359 353 345 416 437 447 457 480 524 439 426 235 421 587 563 547 415 297 271 214 204 217 192 207 192 189 173 209 186 146
229 187 197 238 221 230 277 305 288 293 379 324 331 330 311 381 394 452 487 466 497 553 562 555 395 657 646 557 486 385 288 243 186 198 206 239 226 237 248 226 206 168 146
269 283 214 185 183 194 226 265 246 249 295 284 287 275 270 431 406 527 490 489 515 525 625 630 600 670 705 591 469 346 265 227 189 201 224 258 231 261 266 223 161 146 129
235 243 189 145 121 180 194 199 201 229 236 239 242 274 289 391 383 509 497 501 568 566 556 443 623 684 619 497 392 310 266 251 212 236 248 238 226 261 243 202 135 139 129
168 165 154 134 138 121 132 169 196 221 245 257 254 254 304 318 379 475 486 565 616 527 513 536 628 637 581 552 361 308 288 263 231 220 182 215 194 201 166 155 147 145 135
104 102 113 99 125 152 203 128 168 200 206 248 245 284 325 334 368 451 513 559 593 550 510 552 567 536 540 468 445 320 304 240 207 167 158 180 176 164 134 135 125 114 94
90 82 76 71 83 94 139 156 132 182 212 227 240 300 348 362 391 415 477 532 503 500 489 515 509 494 371 418 361 365 223 206 173 163 159 150 145 137 112 92 103 97 92
34 69 79 69 84 89 120 120 117 136 161 227 252 275 314 350 370 443 447 432 530 587 517 498 535 532 514 375 387 206 187 169 175 178 168 173 116 114 89 79 84 81 103
1 -36 4 38 74 117 124 135 113 96 129 207 261 285 317 312 382 499 493 624 678 690 659 660 623 672 490 439 184 175 176 157 188 141 145 130 109 111 83 71 78 76 85
3 -20 -13 5 11 66 109 120 111 133 155 192 253 299 351 383 480 560 655 765 847 869 855 936 866 628 624 289 260 168 166 183 165 136 128 115 129 106 124 68 75 46 43

GFSMA_con_3kmhel_249.txt.gz
Helicity
72 68 41 27 26 38 25 16 12 4 -9 -15 -12 -3 14 63 78 69 59 64 71 50 38 36 41 54 72 78 80 86 89 85 85 94 100 100 98 92 73 70 59 47 52
87 78 59 48 36 32 22 23 25 15 -3 -2 -15 -9 -9 19 49 51 64 52 61 55 48 52 47 60 82 94 100 94 98 101 112 126 124 114 94 77 74 70 58 54 61
93 91 79 65 48 48 41 32 21 33 19 16 -6 4 4 8 32 56 71 70 59 62 70 63 74 86 88 92 91 88 100 117 132 137 135 114 98 85 81 67 61 56 55
76 107 98 65 60 73 69 61 53 35 28 37 17 15 21 17 44 67 89 97 92 97 79 64 84 104 109 102 88 89 108 129 140 135 124 118 102 79 72 64 62 62 56
91 86 93 86 100 87 78 71 56 69 54 44 38 22 28 42 57 106 107 124 110 126 104 94 92 124 125 136 109 111 129 149 152 142 129 116 109 82 77 73 63 54 52
101 94 62 72 112 109 85 84 70 76 56 51 52 39 37 54 64 113 126 140 132 128 148 144 137 141 137 150 142 130 145 156 151 148 141 136 123 91 70 59 59 53 46
104 92 70 56 92 100 94 101 90 80 50 62 76 27 7 31 49 70 94 131 171 167 154 178 177 203 198 168 182 176 181 183 171 166 153 138 111 82 69 60 49 51 55
97 98 94 64 49 50 60 77 87 71 41 113 103 92 38 38 109 112 109 123 146 206 202 192 203 223 250 229 216 211 211 206 189 176 162 137 100 79 59 60 71 77 70
136 107 84 89 71 56 40 82 103 107 82 116 171 183 142 150 124 130 177 210 188 229 230 220 214 245 273 268 259 248 274 246 210 176 165 147 110 83 55 75 74 77 89
169 157 116 84 96 108 92 87 123 145 167 170 188 189 218 202 149 101 123 143 159 178 226 236 227 276 307 316 307 319 326 284 230 193 179 159 117 89 69 81 82 90 94
193 205 196 161 120 124 108 146 190 188 206 201 279 277 240 276 292 289 132 184 173 148 195 227 234 279 343 387 379 346 352 266 241 197 172 150 118 98 85 83 95 91 104
251 197 192 199 176 170 171 187 225 252 256 263 254 300 328 311 278 357 328 276 218 176 167 229 259 300 381 410 396 383 367 303 230 173 188 169 123 109 118 107 100 105 110
309 264 230 196 226 221 224 246 269 244 271 288 308 293 333 325 307 349 344 350 265 226 205 230 280 346 384 429 400 407 381 323 251 206 217 162 130 119 126 128 114 104 93
207 180 289 270 250 237 237 262 281 311 312 324 274 294 297 328 367 426 413 369 348 329 326 313 375 373 443 445 363 293 296 257 279 224 210 156 140 124 140 120 105 95 101
129 87 149 257 277 280 279 281 293 299 324 322 301 282 316 308 353 413 423 403 318 295 320 384 417 443 476 470 327 341 332 313 237 226 212 173 148 129 120 102 116 117 119
227 94 83 220 210 230 250 274 259 244 276 322 289 278 291 312 350 434 464 393 385 349 375 431 465 505 508 379 328 391 457 321 309 308 234 175 147 128 143 133 130 156 149
202 171 187 185 189 229 226 222 231 203 127 249 258 298 269 304 313 347 411 387 389 404 320 439 593 606 571 502 257 444 436 434 331 262 212 181 161 184 164 154 164 151 153
202 219 165 131 140 166 179 193 185 188 243 244 236 243 222 251 265 281 364 375 398 365 347 429 590 630 570 248 328 480 445 361 333 274 262 216 193 189 195 180 151 155 131
162 155 150 196 207 167 168 192 206 197 198 199 197 219 194 204 209 260 348 353 284 346 404 557 644 761 727 536 500 527 485 411 288 270 226 202 179 194 223 186 142 135 136
155 169 165 178 190 185 172 169 173 160 162 171 182 202 205 190 224 214 312 278 312 374 440 505 614 634 713 682 600 643 524 396 352 311 237 193 199 199 218 197 153 147 139
232 192 170 158 182 207 176 229 229 170 165 154 149 163 207 201 225 235 304 248 300 367 491 493 552 563 603 580 617 620 509 477 330 283 281 185 173 177 155 150 149 154 129
232 259 256 202 168 134 187 202 203 221 192 142 132 145 178 179 206 171 208 275 330 345 347 495 531 549 500 564 698 617 652 484 466 169 205 255 133 147 169 158 166 144 101
118 122 104 125 155 140 143 175 220 171 175 169 158 144 150 168 195 218 213 290 377 422 449 387 440 529 580 601 704 667 535 543 422 328 222 134 134 126 133 137 163 153 104
31 50 66 79 98 117 131 114 143 122 141 135 123 129 145 183 200 236 285 382 421 400 357 376 372 427 426 403 569 403 491 438 519 355 212 128 110 91 119 151 148 127 121
-13 19 16 39 39 48 65 89 100 92 99 113 114 116 135 158 176 243 357 445 476 494 563 545 471 439 539 600 608 730 580 682 505 340 139 152 108 106 132 106 90 117 111
-35 -10 24 -10 -39 -5 11 20 31 60 122 136 130 130 134 160 169 282 394 475 570 520 650 684 767 812 790 730 589 620 455 568 339 154 107 93 90 142 125 114 70 54 77